Location: *
(2.5500°S, 65.9667°W)
Time: 10:44:59
(UTC+00:00)

SRMSAT - Pass Details

Date: 03 July 2022
Orbit: 848 x 865 km, 20.0° (Epoch: 14 August)

Event Time Altitude Azimuth Distance (km) Brightness Sun altitude
Exits shadow 09:55:38 - 272° (W) 2,703 ? -8.5°
Reaches altitude 10° 09:56:21 10° 270° (W) 2,460 ? -8.3°
Maximum altitude 10:01:56 43° 199° (SSW) 1,164 ? -7.0°
Drops below altitude 10° 10:07:34 10° 128° (SE) 2,472 ? -5.7°
Sets 10:10:15 0° 121° (ESE) 3,411 ? -5.1°
